Theta_e
305 305 305 304 303 303 302 302 301 300 300 299 297 301 298 296 294 304 306 307 303 294 289 292 289 287 290 294 293 294 291 289 293 292 294 291 294 292 291 290 285 288 286 286 287 290 286 287 287 289 288 289 292 294 295 296 295 294 292 293 295 294 290 287 288 291 293 295 297 298 299 298 295 295 297 295 292 293 292 292 294 290 291 289 290 286 293
305 305 305 303 303 303 303 301 301 300 300 299 299 297 296 296 296 298 307 307 301 292 283 284 286 288 292 293 292 295 293 292 290 291 292 290 289 289 290 292 292 287 291 289 287 292 284 288 288 289 291 289 295 295 295 297 293 293 292 290 296 288 291 289 284 284 286 289 292 293 296 297 294 293 295 296 295 295 296 296 299 289 292 292 290 284 292
305 305 304 304 303 303 302 301 300 300 301 302 300 294 295 296 300 297 300 304 301 290 291 288 285 286 287 288 288 290 292 294 293 292 290 294 292 290 289 292 292 287 291 290 292 293 289 288 290 290 289 290 295 295 296 296 295 295 297 296 298 291 290 288 282 278 276 276 278 281 285 290 294 295 295 296 294 294 294 288 291 287 292 293 290 291 298
305 305 304 304 303 303 302 301 300 300 300 301 301 297 296 293 286 294 297 297 297 296 296 292 288 285 286 285 291 292 288 293 295 294 291 295 294 293 293 295 295 292 292 289 287 286 292 288 288 289 289 291 294 297 296 296 296 297 297 297 298 292 294 292 290 287 285 287 289 293 293 292 290 292 294 294 295 296 296 295 290 288 292 291 294 296 298
305 305 304 304 303 303 303 302 300 300 300 300 299 298 296 296 289 287 285 291 295 293 296 292 289 286 289 284 289 287 289 290 291 295 287 293 292 293 293 291 290 290 290 289 288 289 287 290 288 288 291 294 296 299 296 296 297 298 297 299 299 294 289 292 293 292 292 293 292 294 293 291 292 291 292 294 294 295 294 289 289 296 293 288 296 298 297
305 305 304 304 304 303 303 302 300 299 300 300 301 294 295 289 291 291 291 285 285 287 289 291 288 290 290 287 290 287 287 287 285 291 292 292 293 289 292 293 292 291 290 290 287 289 287 287 286 288 293 295 297 295 295 294 297 297 296 300 298 295 288 292 293 292 293 293 293 293 293 293 292 292 293 292 294 294 293 293 296 297 291 291 297 301 298
305 305 304 304 304 303 303 302 300 300 299 301 299 291 294 293 291 291 294 285 289 288 288 289 289 289 291 289 289 286 286 285 288 286 286 288 288 291 284 289 291 291 292 291 289 290 286 285 288 288 292 293 293 291 292 293 296 295 296 297 300 295 291 293 293 292 293 293 293 294 292 292 292 292 293 293 294 294 295 295 296 297 297 298 300 300 299
305 305 304 304 304 304 303 302 300 300 299 300 295 292 288 286 285 286 291 289 288 290 290 291 291 289 292 286 289 287 286 286 288 289 286 283 286 293 288 288 290 291 291 291 288 290 290 288 286 292 293 293 296 292 293 291 295 296 294 297 299 295 288 293 293 292 292 294 293 294 293 292 291 292 293 293 294 294 294 296 297 298 297 298 298 298 298
305 305 305 304 304 304 303 302 300 299 300 297 293 291 292 291 294 291 285 283 289 291 291 291 290 289 291 288 288 287 287 287 289 287 291 287 285 289 286 289 289 291 291 291 292 294 292 291 292 294 294 290 297 293 295 299 292 293 294 295 297 295 290 295 294 288 289 292 292 293 293 293 292 292 293 293 293 292 294 292 297 296 295 297 297 295 297
305 305 304 304 304 304 304 302 300 299 300 297 294 290 295 294 295 294 289 283 289 287 292 292 291 287 291 290 288 286 286 289 289 285 291 292 291 290 289 289 287 289 291 291 293 295 295 295 297 297 298 299 299 299 298 299 298 293 293 296 295 296 293 289 290 288 287 292 292 293 293 292 289 289 293 294 295 295 296 296 298 299 300 295 291 295 309
305 305 304 304 304 304 304 303 300 298 299 295 293 292 293 290 289 290 290 283 288 290 289 290 290 291 292 291 288 289 288 289 290 284 284 290 291 294 292 290 288 288 290 294 299 300 300 300 300 301 300 300 299 299 299 299 298 298 293 294 295 295 295 291 295 287 287 292 293 293 290 282 284 298 300 298 295 295 294 295 298 301 301 298 301 304 310
305 305 304 304 304 304 304 304 302 298 299 300 299 295 296 296 294 292 287 282 284 290 289 287 289 290 290 291 290 288 288 289 289 291 286 288 291 294 294 293 293 287 296 301 301 302 303 303 301 301 301 299 299 299 299 296 298 298 299 296 295 295 295 292 295 289 287 291 292 286 281 284 300 301 302 300 300 298 296 298 299 300 300 300 302 302 307
305 305 304 304 304 304 304 304 303 300 298 299 299 293 297 298 293 289 287 283 282 287 285 287 291 292 292 292 290 290 290 291 293 293 293 291 291 294 296 295 293 295 300 299 301 301 295 293 299 297 298 298 298 297 297 296 295 299 300 299 296 292 292 293 290 291 291 288 287 279 282 297 301 300 302 305 302 302 299 297 300 302 302 303 302 303 313
305 305 304 304 304 304 303 304 303 303 299 298 297 296 297 297 292 290 287 283 283 288 289 288 292 291 290 290 290 290 291 292 293 295 292 294 292 294 298 300 300 302 302 302 300 300 296 297 291 292 291 293 292 290 293 295 296 297 298 299 300 298 296 293 289 294 285 287 287 287 297 297 298 297 298 297 296 297 296 290 297 307 306 305 303 307 313
304 304 304 303 303 303 303 303 303 303 300 299 299 297 296 297 296 292 292 287 282 285 288 285 288 289 289 290 292 290 290 291 290 290 293 295 295 297 299 302 304 304 305 300 299 299 294 292 287 286 286 285 281 284 293 289 296 300 300 299 299 299 294 295 290 287 291 288 286 287 287 284 291 303 306 308 308 309 309 304 300 308 311 310 309 309 314
304 303 303 303 303 303 302 302 302 302 302 299 298 296 297 298 299 296 292 287 284 280 291 293 291 289 288 290 293 291 288 288 288 289 290 294 294 298 302 303 303 306 303 301 299 296 292 288 285 285 283 285 289 287 285 291 290 297 298 298 298 300 300 298 293 289 290 288 285 284 284 289 299 303 306 309 308 308 311 300 294 306 311 312 310 311 315
303 303 302 302 302 302 302 302 301 302 303 299 298 297 296 299 297 294 291 289 286 282 291 292 292 292 290 290 292 291 291 287 287 285 285 290 293 297 300 301 305 306 303 302 300 295 291 290 292 288 289 292 287 286 290 289 288 290 296 300 298 296 296 293 291 288 290 288 287 285 291 289 301 306 307 308 309 309 303 287 289 306 312 312 311 313 316
303 302 301 301 301 301 302 302 302 302 303 300 299 297 297 299 299 297 292 289 284 284 291 295 292 289 288 290 288 291 293 292 290 289 288 292 295 296 295 298 298 303 306 298 299 293 291 289 286 285 285 292 294 293 284 289 286 286 289 292 293 292 291 293 290 292 291 289 290 292 293 299 307 307 308 306 306 305 290 286 296 310 313 314 313 316 318
301 301 300 300 300 301 302 302 302 303 303 300 300 298 297 298 300 299 294 289 286 283 292 296 295 292 293 295 291 292 292 291 289 285 287 290 294 294 295 296 300 293 301 297 298 293 291 289 294 292 288 289 294 287 294 288 287 293 294 291 292 292 293 292 294 291 290 291 290 291 294 300 307 309 306 307 300 289 288 303 313 314 314 314 314 316 318
300 300 300 300 300 301 302 302 303 303 303 302 299 295 298 299 300 299 292 287 288 285 289 291 293 291 295 292 290 290 293 293 293 289 287 285 294 293 295 292 297 297 296 299 291 295 291 288 291 295 291 291 292 293 291 290 294 292 292 295 292 291 290 290 290 291 292 292 289 289 285 297 310 309 308 312 297 299 308 313 315 316 316 316 315 317 318
300 299 300 300 301 302 302 303 303 303 303 302 301 298 297 301 300 301 299 293 288 283 288 296 295 294 295 294 296 295 293 289 291 289 291 288 291 289 285 283 289 290 289 291 288 290 291 289 292 291 294 294 295 295 287 289 292 296 294 294 297 299 290 290 291 293 289 290 288 288 297 304 311 309 299 307 309 312 314 314 313 317 317 316 317 316 319
300 300 300 300 301 302 302 303 303 303 303 302 301 300 295 299 300 300 299 297 289 286 290 294 295 294 296 297 297 297 296 295 296 296 291 288 291 288 288 290 290 293 296 297 294 292 296 294 297 293 293 295 300 292 292 288 287 294 299 298 290 299 296 295 292 298 294 292 296 303 306 308 310 311 310 311 313 314 315 315 315 315 316 319 317 317 318
300 300 299 300 301 302 302 303 303 303 302 302 301 299 295 297 298 300 298 291 293 294 295 295 296 297 298 299 300 301 301 300 299 298 297 290 287 290 288 290 294 298 299 298 291 291 294 295 291 296 294 296 293 292 294 294 290 295 291 298 297 300 301 300 300 299 305 305 306 309 308 309 309 311 312 311 313 314 315 316 314 316 317 318 316 317 318
300 299 299 300 301 302 303 303 303 302 302 302 302 299 297 299 298 297 295 293 290 287 293 296 293 293 297 298 301 303 301 300 299 299 300 297 287 289 295 296 298 298 299 298 299 293 294 293 295 297 292 298 300 294 290 288 290 295 296 294 299 300 302 302 298 300 298 292 305 304 306 308 309 310 312 314 314 313 315 316 316 316 317 318 318 317 317
300 299 299 300 301 302 303 302 302 302 302 302 302 301 301 299 299 296 292 286 287 285 282 288 292 298 301 303 303 302 303 303 303 301 300 299 297 294 295 301 302 297 296 298 300 298 295 291 296 296 292 299 301 292 299 294 292 300 293 296 298 297 304 301 300 300 296 296 305 306 308 309 310 310 310 311 312 314 315 315 316 317 318 318 318 319 318
299 299 300 301 302 302 302 302 301 302 302 302 301 299 297 296 299 300 296 294 292 288 283 285 293 302 303 301 300 301 303 303 302 301 300 299 299 299 299 300 299 302 299 299 299 296 296 296 296 295 295 294 305 297 296 299 299 302 299 297 301 300 304 295 301 298 301 305 307 307 308 308 309 311 313 314 313 314 316 316 317 318 318 319 318 320 320
300 300 301 301 302 302 302 301 302 302 302 301 300 300 299 298 300 298 294 292 288 287 287 286 293 297 300 297 301 303 303 303 303 302 300 300 300 300 299 298 297 297 297 298 301 297 297 296 296 296 300 298 303 301 302 301 301 295 296 301 306 305 300 302 301 296 297 299 304 307 299 296 306 309 312 314 315 316 316 317 317 318 318 318 318 318 320
300 301 301 301 302 302 302 302 302 302 301 300 300 300 301 299 301 301 299 295 291 287 287 287 288 294 298 298 301 303 303 303 303 302 301 300 301 300 299 298 298 296 296 295 293 294 295 296 297 296 296 303 301 296 303 303 304 301 301 301 305 302 301 303 296 296 296 304 307 310 310 308 309 311 314 315 317 317 316 316 317 318 318 319 319 318 318
299 299 300 301 302 302 302 302 301 301 300 300 300 298 299 300 301 301 300 299 297 291 289 289 292 294 292 298 302 302 304 304 304 303 302 301 301 300 300 299 298 298 298 296 294 294 294 295 294 295 298 302 301 297 301 294 294 293 299 304 306 306 306 306 305 306 306 309 309 311 311 308 310 313 315 315 316 317 316 317 318 318 318 319 319 319 318
300 300 300 301 301 302 301 301 301 301 300 299 297 295 291 296 300 300 300 300 298 294 286 285 284 290 300 299 301 302 302 304 304 303 302 302 301 301 300 300 300 300 299 295 295 292 294 294 292 299 302 305 301 298 295 297 296 297 303 305 307 308 308 309 308 307 304 309 310 311 311 312 314 314 315 315 316 317 316 316 316 317 317 319 318 318 319
300 300 300 300 301 301 301 300 301 300 299 298 295 289 288 286 295 300 299 301 299 294 289 288 285 291 292 301 302 301 302 302 303 304 303 303 303 302 303 302 303 302 296 296 295 295 294 293 291 297 299 302 298 298 297 296 292 297 301 304 305 306 306 307 309 309 308 309 310 311 312 312 313 313 312 314 315 317 317 317 316 312 315 317 317 318 317
300 300 300 301 301 301 301 300 300 299 298 296 293 292 294 295 299 301 300 299 298 294 288 284 286 290 291 295 302 305 302 303 303 305 304 305 303 304 303 302 302 304 299 297 297 295 292 293 292 297 298 301 300 299 300 297 291 295 301 302 303 305 306 306 307 308 309 309 309 309 309 311 312 310 308 313 314 316 316 316 317 318 315 317 318 318 318
300 301 301 301 301 301 300 299 299 298 298 299 300 300 300 299 300 300 300 299 296 292 292 286 284 287 287 296 301 304 302 304 305 305 303 305 304 304 302 303 303 302 305 297 294 294 298 293 294 297 301 303 295 296 298 295 297 301 303 303 305 305 306 307 307 307 308 310 309 307 305 308 309 312 313 313 313 314 315 315 316 317 317 316 316 316 316
302 301 301 301 300 299 299 299 298 298 298 296 295 298 302 302 302 301 302 299 294 294 291 286 284 286 288 299 296 302 302 298 300 301 296 304 306 304 301 303 304 297 300 296 297 296 298 294 295 296 302 295 299 295 290 296 301 303 303 304 305 306 306 306 305 306 305 305 308 308 307 307 310 313 313 312 312 314 315 315 316 315 315 315 314 314 315
301 300 299 299 299 299 298 298 299 297 295 295 297 301 303 299 300 302 301 296 289 287 287 287 288 286 287 290 291 298 303 301 298 301 295 300 305 303 303 297 300 295 299 305 296 294 293 295 301 295 291 299 294 290 292 298 299 301 302 302 304 306 306 305 304 306 306 308 309 309 309 310 309 308 309 310 311 311 311 312 313 314 312 312 313 313 314
299 299 299 298 297 297 299 299 298 297 295 295 298 301 299 301 302 304 303 300 295 290 288 288 289 287 288 285 288 294 303 299 302 303 300 298 300 302 301 298 293 297 301 296 293 298 293 301 297 291 294 291 290 294 297 300 300 300 302 302 304 305 304 305 305 307 308 310 310 311 309 309 308 308 309 310 310 311 311 310 311 312 311 311 311 313 313
299 298 297 297 298 298 296 293 298 298 297 300 300 299 299 300 303 302 299 296 298 298 290 287 286 289 291 291 293 294 300 292 300 297 301 294 293 294 296 294 292 292 293 293 294 294 297 303 297 292 292 291 293 301 301 302 302 301 301 303 304 306 306 306 306 307 308 309 309 309 309 308 308 308 308 308 309 310 309 309 309 309 309 309 310 311 312
298 297 297 297 297 290 290 293 297 299 298 297 298 298 299 298 291 291 291 289 293 294 290 291 287 292 296 292 289 300 298 295 301 294 295 297 293 292 292 292 292 291 288 291 294 301 297 296 294 292 292 300 302 302 303 303 304 305 304 304 304 305 306 307 307 305 305 304 304 305 305 306 306 307 307 307 308 308 308 309 309 310 310 309 310 311 311
296 296 295 294 291 289 291 298 299 297 298 299 299 294 292 293 290 288 289 291 290 287 292 291 290 295 294 293 295 303 299 293 293 297 292 299 292 288 292 288 291 291 289 289 292 298 291 292 293 293 292 299 300 302 304 304 305 305 304 305 305 304 305 305 306 305 304 303 303 304 305 303 303 303 305 305 306 307 307 308 308 309 309 309 309 309 311
296 293 289 290 289 293 297 299 297 297 298 293 295 293 288 292 288 286 292 287 287 290 292 288 296 296 297 294 293 294 303 297 291 291 293 295 298 289 292 291 292 289 285 287 290 298 291 288 291 291 290 296 299 303 303 304 303 304 304 304 304 304 304 304 305 306 306 305 306 305 305 305 305 304 304 304 304 304 305 306 306 307 308 308 306 309 309
294 293 293 290 294 296 297 299 300 298 294 291 290 290 289 286 291 291 289 287 288 289 296 296 297 295 298 298 297 292 302 302 301 300 295 291 299 296 290 287 291 287 286 286 292 294 293 290 290 289 291 298 301 303 303 303 304 304 304 305 304 304 304 304 304 305 305 304 305 305 305 305 305 305 305 305 305 304 304 305 305 305 306 306 306 307 309
294 293 294 296 296 296 296 296 294 291 289 293 287 284 287 288 291 290 290 286 287 290 293 294 293 295 295 298 298 299 298 304 300 295 293 289 291 289 288 289 290 286 284 290 294 293 292 286 288 289 296 301 303 303 303 302 303 303 304 305 304 304 303 303 303 304 305 304 304 304 304 305 304 304 304 304 303 303 303 304 304 305 305 306 307 307 308
296 297 296 294 292 292 293 288 291 290 283 284 283 281 286 283 287 286 287 292 296 293 294 301 299 302 302 302 299 302 297 301 294 292 290 289 292 290 288 287 286 284 288 294 291 289 287 287 287 291 299 302 303 303 302 303 303 304 304 305 305 305 304 303 303 303 304 303 303 303 304 304 304 304 304 304 304 304 304 304 303 304 305 306 306 307 307
297 296 292 290 289 290 290 281 290 287 284 286 283 279 283 282 286 288 287 289 293 293 296 293 295 295 291 300 296 295 296 298 295 294 293 293 289 287 286 284 286 291 295 290 288 286 287 289 292 296 299 302 303 303 303 303 304 303 303 304 304 304 304 303 303 303 303 303 303 303 304 304 304 304 304 304 304 303 304 304 304 303 304 306 306 306 307
291 289 289 287 286 289 287 280 290 285 279 282 285 284 285 282 286 288 288 293 294 292 296 297 297 297 293 299 297 297 294 292 295 290 287 290 288 289 286 285 289 290 287 285 287 288 289 288 296 298 299 300 303 303 304 304 304 303 303 303 303 304 303 302 302 302 302 302 302 302 302 302 303 303 303 304 304 304 304 303 304 303 304 305 305 306 307
289 287 287 282 278 284 285 281 284 281 286 287 287 289 288 289 290 290 294 296 294 295 295 295 295 295 293 298 292 292 295 294 291 291 291 290 286 285 289 291 290 286 285 286 285 285 287 293 296 298 300 300 302 305 304 304 305 305 303 303 303 303 303 303 303 303 302 302 303 303 303 303 303 303 303 303 303 304 304 305 305 304 304 304 304 304 306
289 289 288 287 282 285 288 282 284 287 289 290 291 292 291 292 293 293 295 296 294 296 296 298 297 296 292 293 293 294 294 294 289 292 292 287 286 288 290 286 283 285 282 282 284 286 290 295 298 300 300 301 303 305 304 304 304 304 303 304 303 303 303 304 303 302 303 303 303 303 303 303 303 303 303 303 303 304 303 305 305 305 304 303 303 305 306
285 288 287 280 279 284 282 286 292 292 293 293 293 293 292 293 292 293 295 297 296 297 296 296 293 295 294 298 295 290 292 293 289 290 290 287 289 286 284 284 283 285 286 286 287 292 295 297 298 299 300 302 303 304 304 304 305 304 303 303 303 303 303 303 302 302 303 304 302 302 303 303 303 303 303 303 303 304 304 304 305 305 305 305 304 305 304
289 287 284 283 286 285 287 290 289 287 291 293 292 291 291 291 291 294 295 295 295 295 297 295 293 292 289 293 291 290 288 291 286 286 290 288 284 280 281 280 282 282 287 290 292 295 297 299 299 300 302 302 304 305 305 306 305 305 304 304 304 304 304 303 303 302 303 304 304 303 303 303 303 303 303 303 302 303 305 304 305 305 305 304 304 303 304
287 286 287 285 284 286 289 289 287 286 290 291 291 290 292 291 292 293 294 293 294 295 297 295 296 291 290 290 287 289 289 291 288 288 286 284 285 285 284 280 283 285 289 293 295 297 299 300 301 301 302 304 304 305 305 306 303 304 305 305 306 305 304 304 303 303 302 303 303 304 304 304 302 302 301 301 303 304 304 304 304 304 304 304 303 303 303
289 286 287 291 285 284 287 282 284 284 286 288 290 290 290 289 291 292 296 293 294 293 292 289 290 290 289 288 287 283 287 291 288 287 286 284 286 286 284 283 287 291 293 297 298 299 300 301 301 301 303 304 305 305 306 306 306 305 306 305 305 305 305 305 304 303 303 304 305 299 304 303 302 303 302 304 303 303 303 303 302 304 304 304 304 304 303
285 283 284 287 290 289 289 289 288 287 288 289 289 290 291 289 292 293 294 292 292 290 288 291 290 288 286 284 286 289 291 289 287 287 285 287 289 286 285 287 290 293 295 296 298 299 299 301 302 301 302 302 302 305 306 306 306 305 305 305 305 304 304 304 304 303 303 302 304 303 302 304 304 304 302 302 303 302 300 301 303 303 304 305 304 304 304
Wind_Speed
19 18 18 19 21 22 24 23 24 23 24 14 11 10 6 4 4 5 2 3 3 5 6 4 5 5 7 12 11 9 7 5 8 12 9 10 6 4 4 2 1 2 2 1 4 5 4 6 5 5 5 6 8 13 19 17 15 11 9 10 10 3 4 13 11 10 11 11 15 14 14 16 15 13 12 12 13 12 9 5 7 7 7 6 3 3 2
19 17 16 19 20 21 22 21 22 23 21 13 11 8 6 6 5 1 4 2 1 4 5 6 8 8 10 11 11 7 7 7 11 9 12 8 4 6 6 4 2 4 3 3 3 2 2 6 4 2 3 5 8 13 18 18 11 11 8 7 10 5 5 12 13 11 10 7 11 14 13 15 14 12 13 14 13 12 9 8 2 6 8 7 4 5 5
18 16 16 17 19 20 21 20 21 23 22 16 8 7 7 7 4 3 2 1 4 5 5 7 7 9 12 14 12 12 8 7 10 11 12 10 4 7 6 7 6 3 4 4 3 5 4 1 7 5 1 3 4 8 17 17 12 9 8 5 8 4 7 10 12 13 13 14 16 18 17 18 13 13 16 15 17 17 9 6 8 5 6 5 3 2 9
17 16 16 17 17 19 20 19 20 22 22 20 8 5 7 6 5 5 4 4 3 5 1 2 7 10 11 12 9 12 11 12 11 8 9 4 10 9 9 8 8 5 5 4 1 1 0 4 2 2 2 5 6 4 13 17 12 11 6 6 5 4 6 8 11 12 12 12 12 12 13 13 15 17 18 18 17 16 11 8 6 7 5 5 9 5 5
17 16 16 16 16 18 19 18 19 21 22 21 9 5 4 5 4 5 8 8 4 6 4 6 8 8 11 8 10 12 14 14 10 7 4 5 12 11 7 5 9 7 10 6 2 2 1 1 2 3 5 4 4 3 8 14 14 12 11 10 4 4 6 6 8 11 9 10 7 10 14 15 14 15 16 16 17 17 15 10 9 8 3 8 2 2 4
17 16 16 15 16 17 18 17 17 20 21 25 10 4 7 3 3 2 1 4 7 11 6 12 13 14 11 7 7 10 15 15 11 9 2 8 9 6 3 6 9 9 9 11 5 1 2 2 1 5 5 5 6 6 9 11 15 15 9 8 4 3 4 7 6 9 7 6 10 12 13 14 15 15 15 17 17 17 17 13 9 8 7 4 7 7 5
17 16 15 15 15 16 16 15 16 18 22 19 8 6 5 4 3 2 5 4 6 9 14 17 14 14 10 7 7 13 14 15 11 5 6 5 5 5 5 10 12 11 10 8 5 7 1 2 0 2 3 1 7 9 11 11 14 13 10 7 4 3 4 4 4 6 7 8 11 16 17 16 16 16 16 16 16 16 17 14 13 11 11 6 5 9 9
17 16 15 16 16 16 15 13 14 16 19 12 9 9 6 5 5 4 7 6 11 11 10 10 11 10 8 7 9 11 13 16 16 10 4 9 9 6 9 13 14 13 12 8 6 5 1 1 3 4 5 2 4 11 3 6 12 12 7 4 5 6 6 2 3 6 9 9 8 13 16 17 17 17 17 17 16 16 16 14 14 16 15 11 10 10 10
17 15 14 15 16 16 15 11 11 13 16 11 10 8 6 5 4 5 7 10 6 9 9 9 9 8 9 9 11 13 11 14 17 17 12 10 7 9 13 14 14 12 9 10 8 3 5 4 7 7 8 3 7 4 5 7 9 10 8 5 6 5 1 3 3 3 9 12 13 12 15 15 15 16 17 18 18 17 17 14 14 14 12 6 7 9 6
16 14 13 14 15 16 17 12 8 10 13 9 8 8 6 5 4 6 5 5 7 9 10 9 8 7 10 11 13 9 16 17 16 13 3 4 9 12 11 11 10 12 11 9 7 8 10 11 10 8 7 6 6 3 6 6 4 8 7 7 7 6 2 1 1 3 7 13 14 14 15 13 12 13 16 18 17 14 14 14 13 15 9 6 5 8 6
15 13 12 13 15 16 16 14 6 7 6 6 7 6 8 6 6 5 3 6 6 6 9 8 9 8 12 14 16 15 15 16 14 9 5 6 9 7 10 13 11 10 11 10 8 8 12 10 9 6 6 5 4 2 1 4 3 3 5 5 5 4 4 3 2 2 9 13 13 12 12 10 9 5 10 17 17 18 17 15 15 12 8 7 6 5 5
14 13 11 12 14 16 16 14 6 4 4 2 3 5 4 4 5 4 4 6 7 7 8 8 10 13 16 16 14 15 17 17 17 12 13 12 17 16 13 11 9 7 4 7 11 12 10 4 3 5 6 6 4 1 2 2 2 3 4 6 4 3 2 3 1 2 8 10 11 10 10 8 6 1 3 10 14 16 16 15 15 12 12 13 10 10 7
13 12 12 12 13 14 16 16 11 2 2 3 2 5 4 4 5 4 4 4 7 10 10 11 13 13 13 17 17 15 16 16 14 15 11 11 14 12 9 9 9 11 11 14 12 9 3 5 8 10 10 8 6 5 3 1 2 6 6 6 7 3 3 3 3 2 8 8 8 9 7 7 5 6 4 5 4 3 10 12 9 8 9 9 11 7 3
11 11 12 13 14 14 14 15 13 7 2 2 3 4 3 4 6 4 3 5 9 7 10 13 9 12 16 17 15 17 15 12 12 9 8 7 11 13 12 9 10 12 11 9 8 5 3 5 7 8 8 6 5 2 5 3 5 6 7 8 7 8 8 5 2 5 8 8 10 4 9 9 8 8 7 6 9 10 10 6 7 2 4 7 8 4 1
10 10 11 13 13 14 14 14 13 11 2 4 3 3 3 3 3 4 3 3 8 12 9 6 12 16 17 15 14 14 13 13 14 11 13 10 7 9 12 13 12 10 7 5 2 3 1 3 6 8 6 5 4 3 5 4 4 4 6 9 9 8 9 2 3 3 5 11 9 7 7 6 5 6 5 5 4 5 3 4 5 2 1 2 5 5 4
11 11 11 13 15 14 15 15 14 13 7 6 3 2 2 1 2 3 4 4 5 7 3 8 12 14 13 14 14 13 12 12 12 13 9 5 10 16 12 13 12 8 4 3 3 2 1 4 7 8 6 4 2 1 3 1 4 3 4 8 7 6 7 7 5 4 5 8 8 7 7 4 6 6 4 4 3 0 1 5 6 4 3 4 3 4 3
11 12 14 14 16 16 15 15 14 13 8 8 3 3 2 1 3 4 5 4 3 10 13 14 9 9 11 10 9 7 10 9 12 10 9 11 14 14 14 16 12 6 6 5 3 2 4 4 5 5 4 3 2 1 0 0 3 2 5 8 8 6 3 3 4 5 5 8 7 7 3 2 3 5 5 3 4 4 6 9 5 4 4 4 2 3 2
12 14 15 16 17 15 14 14 13 12 8 9 4 4 4 1 2 4 3 4 6 8 4 3 7 8 7 10 12 11 9 8 8 8 8 13 11 11 16 13 12 9 11 3 4 3 4 3 5 3 5 3 1 3 2 2 2 3 5 8 2 1 2 3 5 4 6 8 6 4 5 4 7 7 5 3 3 4 8 5 3 5 5 3 3 2 1
14 15 16 15 14 14 14 13 12 11 8 8 4 4 4 4 2 3 4 5 5 8 5 7 9 13 12 10 11 10 8 10 9 9 11 8 7 17 18 7 7 8 12 5 5 4 3 5 4 2 0 2 2 2 2 2 3 3 6 5 2 1 2 2 2 6 5 5 6 7 5 4 7 5 5 3 4 7 3 3 2 4 4 4 1 2 1
15 15 15 13 13 14 13 12 12 11 9 3 5 4 5 4 4 4 6 6 6 13 14 14 10 14 9 10 10 8 8 7 5 6 8 9 10 18 8 2 7 10 8 8 6 5 3 4 3 2 1 4 2 3 1 4 2 5 4 4 3 4 2 3 3 1 0 1 7 8 6 4 10 8 3 3 2 3 2 1 5 4 5 4 3 1 2
14 14 14 13 14 14 13 13 12 12 7 2 4 6 7 2 4 5 4 7 8 12 9 2 4 9 10 13 13 13 12 11 8 8 7 7 10 8 5 4 9 7 7 7 5 5 3 2 3 2 1 3 2 2 2 1 5 5 3 4 5 8 1 3 3 6 1 4 3 3 2 5 10 7 5 8 7 4 5 4 5 6 6 6 3 3 2
13 12 13 13 14 13 13 13 12 10 5 4 5 6 8 3 3 4 6 6 8 11 10 14 15 17 18 16 16 15 16 16 16 10 9 8 3 2 4 7 8 4 4 5 4 2 4 3 2 1 1 1 2 1 1 0 5 3 4 6 1 10 6 4 3 3 3 3 4 4 5 7 7 9 8 6 5 4 4 5 5 7 6 6 3 5 2
13 12 12 13 13 13 13 13 11 7 6 6 7 5 8 8 6 5 7 10 10 12 15 16 13 15 16 17 18 17 15 14 13 11 10 6 5 3 5 4 4 4 4 5 4 4 5 6 2 3 2 1 3 1 4 4 3 4 3 4 4 5 4 5 4 5 8 10 5 4 7 8 8 7 6 6 6 4 3 6 7 7 6 6 6 4 2
12 12 11 11 13 15 14 11 8 7 7 8 7 8 8 8 8 7 6 7 7 11 8 5 4 3 4 6 4 5 10 11 13 11 8 8 5 2 4 6 4 3 1 5 4 5 5 3 3 3 2 3 5 2 2 4 3 1 1 2 2 4 2 1 3 4 2 5 5 7 7 8 10 9 7 5 5 5 3 5 6 7 6 6 6 5 3
12 11 10 12 14 15 12 9 7 7 8 9 9 8 8 8 5 5 7 6 5 4 6 8 9 9 7 7 8 7 7 8 8 10 10 12 12 7 4 6 3 6 9 9 7 7 2 2 2 2 2 4 5 2 2 1 3 4 1 2 2 6 5 3 6 5 5 4 3 5 5 8 9 7 7 7 5 5 5 5 5 4 5 6 5 2 3
12 11 12 13 15 13 10 8 8 8 9 10 10 8 8 8 7 6 6 7 6 4 5 7 5 4 9 11 10 7 2 5 9 11 13 15 15 12 10 8 8 5 8 8 7 4 3 2 0 2 3 3 5 2 3 4 3 2 4 4 4 5 7 1 2 4 3 3 3 3 6 10 10 10 8 5 5 5 7 8 7 6 6 7 7 6 4
12 12 13 14 13 11 9 8 8 9 10 11 9 9 9 8 7 6 6 4 6 4 4 7 10 12 10 17 12 5 5 6 7 9 11 13 13 11 10 9 9 8 7 7 4 3 2 2 3 3 4 3 3 3 2 2 2 2 3 6 4 3 6 3 4 5 3 2 2 7 1 2 7 9 8 7 7 7 9 9 9 9 9 9 8 8 8
11 12 13 13 11 10 9 9 9 9 10 11 10 9 8 7 4 4 4 6 5 4 8 11 11 14 19 15 5 5 7 7 8 8 9 10 11 10 9 9 8 6 5 5 2 2 2 3 4 3 2 2 3 2 1 2 2 3 6 6 6 4 4 4 2 1 2 2 3 3 4 7 7 7 7 7 7 8 9 9 8 7 7 8 9 9 9
12 12 12 13 11 10 9 9 9 9 11 11 9 8 3 1 3 1 3 5 5 5 7 11 13 10 5 7 12 8 3 4 5 7 7 7 9 8 8 8 7 5 4 4 2 2 3 2 3 4 3 5 5 1 3 1 3 4 5 6 6 6 3 4 5 3 4 4 3 4 4 5 6 7 7 8 7 7 9 9 8 8 8 8 9 9 9
12 12 12 13 11 10 10 9 9 10 10 8 7 5 3 3 2 2 2 3 3 2 4 7 7 3 8 7 5 6 7 4 4 5 7 6 7 7 7 6 6 6 4 2 2 2 2 1 2 4 5 5 4 1 0 3 4 5 6 6 6 5 4 4 3 4 2 5 5 4 3 4 5 5 7 7 7 8 8 9 9 9 9 9 9 9 9
11 11 11 12 12 12 11 10 9 9 9 6 5 3 3 1 4 2 4 2 1 3 3 3 9 9 7 4 6 8 10 8 2 2 5 5 5 6 5 5 5 5 2 2 2 0 1 1 1 2 3 3 2 2 2 3 2 3 6 6 6 5 6 6 5 5 6 6 6 5 3 2 2 5 9 8 8 6 6 7 8 8 8 9 10 9 8
12 12 12 13 13 13 12 11 11 9 7 6 5 4 4 4 4 2 2 2 1 3 3 7 6 3 4 5 4 7 9 8 3 4 3 4 4 4 5 6 2 4 3 2 0 0 2 0 1 3 3 1 3 2 2 3 4 4 4 5 5 6 6 7 7 8 8 6 5 1 2 4 6 5 6 5 6 5 6 6 6 6 6 7 7 8 8
12 13 14 14 14 13 13 13 12 8 7 8 12 14 15 16 14 10 5 3 3 3 2 3 4 5 5 6 9 4 6 5 5 5 3 4 2 4 4 5 4 4 4 2 2 1 2 2 2 1 3 2 0 1 4 5 4 4 3 2 1 3 4 4 5 7 8 8 5 4 1 4 6 6 4 5 6 6 6 6 6 5 7 9 9 8 7
13 12 11 11 12 13 13 13 11 10 8 6 6 4 3 2 5 6 5 5 3 3 1 2 4 6 8 7 6 4 7 7 3 4 0 4 2 4 1 4 4 2 5 3 1 1 1 1 1 0 2 1 1 1 2 3 4 4 3 2 2 0 1 2 3 6 9 8 4 5 7 3 5 3 4 6 7 6 6 5 5 6 7 8 9 7 6
10 10 12 12 13 12 11 8 5 4 3 3 4 2 4 2 7 6 6 6 3 1 2 2 2 6 6 4 3 3 7 7 4 5 3 2 3 3 1 2 2 2 3 1 1 1 1 0 2 1 3 2 1 2 2 3 4 4 3 4 4 1 3 2 3 3 2 4 2 5 6 3 2 3 5 6 7 7 8 9 8 7 8 8 7 6 6
11 13 13 12 10 6 2 3 3 3 3 2 2 5 6 11 7 3 7 7 3 3 2 2 2 5 4 6 5 3 9 6 3 4 1 2 3 2 3 2 2 1 2 2 1 1 0 2 2 2 1 1 3 3 5 3 4 4 5 5 5 5 4 3 3 3 4 5 6 7 7 6 5 4 5 6 6 7 7 8 9 8 8 7 7 6 6
13 13 13 10 5 4 2 0 0 3 3 4 7 12 13 7 2 4 4 3 4 3 4 2 5 5 4 5 3 3 7 5 6 5 1 1 3 0 2 2 0 1 2 2 2 0 2 0 2 2 3 3 3 6 4 4 5 5 5 6 5 5 4 4 4 3 3 7 8 7 6 7 6 4 5 6 6 6 8 9 8 8 8 8 7 6 6
12 10 5 3 3 2 1 2 2 2 7 8 7 5 3 3 1 1 1 2 2 3 3 4 6 6 4 4 4 5 5 3 6 3 1 2 2 2 0 2 2 1 1 0 3 2 1 1 0 3 3 5 6 6 5 5 5 5 6 6 6 6 6 5 3 1 3 4 6 5 5 5 6 6 5 7 7 7 6 6 6 6 6 6 6 6 5
9 4 3 2 2 1 1 3 2 6 5 3 3 2 2 1 1 1 2 1 1 3 3 4 4 3 5 6 8 3 3 5 6 3 3 4 2 0 0 2 2 1 1 2 2 2 2 2 1 2 3 6 6 6 5 5 5 5 6 6 6 7 7 8 9 10 8 7 7 8 7 6 6 6 5 4 4 5 5 5 5 5 5 6 6 5 5
3 2 1 2 1 2 2 1 3 4 3 2 1 2 1 1 2 1 1 2 2 2 2 3 4 5 5 7 8 5 1 4 4 5 5 4 2 2 1 2 1 1 1 1 2 1 2 1 1 1 3 4 6 6 5 5 6 6 6 6 7 7 7 7 7 6 7 7 7 8 7 7 7 6 5 5 5 4 5 5 5 5 6 5 5 5 6
2 2 2 1 4 3 3 5 3 3 2 2 1 1 1 2 2 1 1 3 2 1 2 4 2 4 4 5 5 6 1 1 3 3 3 3 1 2 2 1 1 2 1 1 1 1 1 0 0 2 4 5 7 6 5 5 6 6 6 6 7 6 7 7 7 5 4 4 5 5 5 6 6 6 6 5 4 4 4 5 5 5 6 6 6 6 5
4 4 4 5 5 5 4 3 2 2 1 1 1 2 1 1 0 2 2 3 1 0 3 3 3 4 5 4 5 5 3 0 3 2 2 2 1 2 2 1 0 2 0 2 1 1 1 0 1 3 4 7 7 6 5 6 6 6 7 6 6 6 6 7 7 7 5 4 4 4 5 6 6 5 5 4 4 4 4 4 5 5 5 5 5 4 5
4 6 2 3 2 2 1 2 2 1 1 2 2 2 2 3 3 2 1 1 1 2 1 3 4 5 5 3 4 4 2 2 2 1 2 2 1 1 2 1 1 1 1 0 1 1 1 1 2 4 4 6 7 6 4 5 5 6 6 5 5 6 6 6 6 7 7 6 6 5 5 5 5 5 4 4 4 3 3 3 4 5 4 4 4 4 5
1 1 2 1 1 1 2 2 1 1 1 1 2 2 2 3 2 2 2 0 1 2 3 5 5 6 3 3 5 2 1 3 2 2 2 1 1 1 1 2 1 2 0 1 1 0 3 2 4 4 4 4 4 5 5 5 5 6 6 6 5 4 5 5 5 5 6 6 6 5 5 5 4 4 4 4 5 5 5 4 4 4 4 4 4 4 3
2 1 1 1 1 1 1 1 2 2 3 3 2 3 1 3 1 2 2 1 3 4 4 4 4 5 6 5 2 2 1 2 0 2 1 1 2 1 2 1 2 1 2 1 1 2 2 3 3 4 4 3 6 5 5 5 5 4 5 6 5 3 3 3 3 3 4 5 6 5 6 5 5 4 4 4 4 5 6 6 5 5 4 4 4 4 4
2 1 1 2 1 2 2 2 2 2 2 1 2 2 4 3 3 4 3 2 4 4 4 6 6 5 6 2 2 2 0 1 2 1 2 1 2 1 1 1 1 2 1 1 1 1 2 4 4 4 4 3 1 5 5 5 4 4 5 5 4 4 2 2 2 1 3 3 3 4 5 5 6 5 4 3 3 4 5 5 5 5 4 4 3 4 4
1 1 1 1 2 1 1 2 3 1 1 2 2 3 3 4 5 5 4 3 5 5 6 5 6 4 5 2 2 2 2 1 2 1 1 3 2 1 0 2 1 1 1 0 1 2 3 4 4 5 5 3 0 4 5 5 5 5 2 2 4 4 3 1 1 1 2 2 2 2 4 5 4 4 4 4 4 4 5 5 5 5 4 3 4 4 4
1 0 1 2 2 1 3 2 1 2 3 4 2 2 2 3 4 3 1 3 4 6 6 6 5 2 4 3 2 3 2 0 2 1 1 2 2 2 1 1 1 1 1 1 2 3 3 4 5 6 5 4 2 3 5 5 5 5 4 2 3 4 4 4 1 1 2 2 1 1 2 2 3 4 5 4 4 4 4 5 5 5 4 3 3 3 4
1 1 2 1 1 0 1 2 2 5 3 3 2 2 3 4 4 3 3 4 5 5 5 5 3 2 4 0 2 2 2 1 2 1 2 2 1 1 1 0 1 1 2 2 3 4 4 5 5 5 4 3 1 2 3 2 3 4 4 3 3 2 3 3 0 2 2 2 2 1 2 2 2 2 3 4 5 4 3 3 5 4 4 4 4 4 4
2 2 1 2 2 2 2 2 3 3 4 4 4 3 1 3 3 1 2 5 5 6 4 2 2 2 2 2 2 2 1 1 0 0 1 1 1 1 2 0 1 2 2 4 4 4 4 4 4 4 3 2 1 2 3 3 2 3 3 2 2 3 3 2 1 1 1 2 2 2 2 2 1 2 4 5 4 3 3 3 4 4 5 4 4 4 4
1 2 2 1 3 1 1 3 2 2 2 4 3 2 2 3 3 2 4 5 7 6 3 3 2 2 2 2 2 2 0 1 2 1 0 1 1 2 2 2 2 3 5 4 4 4 4 4 4 3 3 2 2 2 1 2 3 2 1 1 1 2 3 3 3 2 1 0 3 3 1 2 2 1 3 2 2 2 2 2 2 4 4 4 4 4 3
1 2 1 2 3 4 3 3 4 5 5 4 3 1 2 2 2 3 4 6 6 4 3 2 2 2 2 1 1 2 2 2 1 1 1 1 1 1 1 3 5 5 5 5 4 4 4 4 4 4 4 3 3 2 3 2 3 3 3 3 2 2 2 2 2 0 1 1 3 4 4 2 3 1 2 1 3 3 4 4 2 3 4 3 4 3 3
Wind_Direction
351 348 350 352 352 355 353 352 348 346 346 352 346 323 314 333 314 44 92 89 223 258 277 304 322 314 303 312 307 309 286 271 294 315 327 325 311 294 256 282 219 247 275 239 240 243 259 212 211 127 213 172 199 164 188 189 183 184 175 189 168 193 218 159 159 156 167 175 168 202 205 188 198 207 214 194 200 201 208 213 160 194 179 201 174 215 116
351 351 351 351 352 355 355 353 347 344 348 346 332 326 333 325 313 337 130 176 238 268 334 325 330 324 321 326 323 327 311 302 314 322 316 322 316 325 309 309 167 287 237 274 305 276 257 193 245 171 177 203 181 166 184 188 183 187 165 189 156 204 186 162 149 155 145 159 170 189 207 201 202 197 205 198 198 199 215 233 131 214 181 195 183 186 130
351 351 351 350 351 355 356 353 347 341 340 343 331 326 322 306 250 235 278 200 224 307 350 324 323 320 326 329 327 348 340 347 323 318 310 312 313 319 307 301 300 234 233 283 269 297 297 296 184 273 252 203 167 191 186 185 186 199 160 211 155 238 167 168 158 155 162 169 177 185 187 198 193 203 194 199 199 193 185 204 185 208 179 222 241 147 96
351 350 348 348 350 354 356 355 347 339 338 338 335 339 315 9 345 356 351 6 277 256 147 291 329 316 334 326 337 338 334 338 344 334 312 322 338 324 293 293 311 337 314 228 195 264 204 253 349 251 221 202 189 175 195 189 194 189 211 227 186 230 188 197 177 177 179 185 187 184 185 179 193 191 195 191 203 198 206 209 205 199 160 214 224 271 56
349 350 346 346 346 353 357 354 349 342 337 335 327 307 351 292 0 348 339 328 196 324 301 347 347 320 328 310 327 324 337 331 331 25 305 358 334 314 303 296 342 341 342 338 325 99 208 38 309 278 265 219 212 137 202 195 210 206 202 232 217 232 193 192 212 211 196 160 166 163 186 184 192 189 194 193 198 200 200 205 203 201 186 206 177 355 279
349 348 345 344 343 352 358 356 351 341 340 328 309 341 359 346 39 0 39 305 315 331 330 343 322 314 317 297 303 314 329 334 335 328 205 310 308 314 294 312 352 337 330 320 312 207 170 165 317 317 252 240 186 182 184 200 206 211 208 203 235 257 201 173 200 203 208 161 162 168 176 184 185 191 188 192 196 200 204 209 222 211 221 120 50 26 352
346 347 345 344 341 345 359 359 354 342 340 325 24 8 33 18 336 263 4 312 304 299 297 301 303 306 321 316 313 328 327 324 338 330 306 305 297 324 301 319 334 330 321 315 302 328 15 134 141 272 54 301 160 168 164 210 198 205 219 204 196 279 200 169 190 213 214 204 191 173 176 173 180 186 188 192 195 203 207 211 232 245 250 281 356 339 313
345 346 345 345 341 336 357 5 359 347 331 338 31 35 358 20 349 337 328 285 288 291 296 303 308 318 337 324 348 329 321 319 332 333 316 310 303 318 315 322 324 324 316 308 298 323 270 357 324 357 344 221 216 169 138 165 192 200 203 213 163 265 127 194 231 212 188 190 192 175 180 177 183 186 187 191 194 199 204 214 226 246 256 261 289 308 306
343 345 345 349 344 335 344 6 7 347 331 20 16 30 22 322 333 320 314 312 316 324 317 321 323 317 352 347 338 325 319 323 329 315 297 260 277 318 313 311 313 308 304 296 304 45 30 322 283 295 306 279 16 342 114 323 177 182 189 220 166 217 224 265 232 215 166 178 187 178 178 182 188 185 189 189 190 197 198 209 212 230 239 250 269 270 277
342 343 346 348 347 343 343 359 9 355 325 16 7 17 5 327 323 319 305 290 309 314 323 316 324 348 358 339 330 324 309 313 324 320 284 226 239 267 285 296 303 298 302 315 346 335 315 292 289 281 274 285 307 309 319 332 346 171 172 210 218 194 246 222 323 204 150 170 183 178 172 178 194 197 193 189 191 198 196 211 219 233 244 243 236 244 40
339 341 345 348 346 344 346 354 14 3 353 32 9 14 7 354 328 322 298 299 299 328 329 327 338 349 330 332 325 322 313 319 326 331 312 319 290 270 286 294 291 292 293 301 317 290 294 291 281 251 228 237 213 247 277 319 263 333 184 201 239 280 281 281 348 240 141 164 177 175 178 185 192 161 192 193 191 193 194 204 215 224 216 235 263 315 6
332 333 341 353 344 340 344 352 357 30 343 23 347 4 5 334 315 311 327 321 302 322 325 316 322 322 323 324 322 319 318 322 317 311 292 287 287 299 302 295 301 289 312 284 295 303 296 250 199 171 176 169 162 141 250 294 5 264 263 255 302 286 294 289 308 256 152 157 161 174 185 179 53 356 175 195 199 195 202 208 221 225 227 237 253 267 294
334 335 340 349 344 337 340 350 350 335 307 343 356 359 351 353 339 337 318 297 291 324 326 312 313 305 323 326 325 322 320 311 310 312 299 293 295 305 315 315 302 294 313 307 312 300 267 167 150 138 136 133 129 164 169 82 231 227 236 240 261 275 289 314 283 223 136 160 165 169 166 87 101 92 110 87 102 212 215 217 223 243 248 242 248 258 323
337 340 340 346 342 337 337 340 350 341 182 285 338 351 344 353 351 331 327 321 299 305 314 304 305 332 332 327 326 325 327 322 320 304 310 311 295 307 323 318 313 306 308 313 300 271 182 170 131 141 120 111 83 117 131 155 231 248 248 250 250 272 282 270 243 179 161 169 165 134 129 129 114 131 133 166 193 192 194 203 207 179 247 245 241 220 153
337 340 341 340 340 335 335 334 339 342 206 217 292 335 352 348 342 323 306 276 297 302 288 300 337 327 324 320 331 332 338 336 335 334 315 288 297 315 314 316 319 324 327 311 251 247 263 137 134 129 112 133 164 184 162 227 198 223 258 269 276 266 259 263 231 201 215 167 153 145 161 162 135 85 90 46 12 10 21 278 183 115 128 276 251 243 168
335 341 342 340 336 334 330 330 328 330 318 207 249 286 317 333 306 316 303 294 308 309 56 359 329 315 317 316 328 335 337 333 338 319 316 341 339 331 333 341 330 323 334 259 275 286 152 146 133 140 134 148 106 225 171 166 277 185 223 268 253 242 253 268 274 188 193 156 161 162 151 75 80 91 68 57 19 348 135 240 186 59 3 351 272 243 186
337 338 339 335 332 326 327 324 325 320 325 191 255 279 301 255 321 332 309 285 241 252 297 309 306 303 306 312 328 340 347 330 336 343 330 339 335 332 332 335 323 334 359 282 281 231 137 108 70 83 86 83 153 37 298 107 279 264 237 223 235 233 209 212 233 187 171 158 161 144 75 126 44 32 29 37 71 146 177 205 149 28 30 348 266 233 190
337 335 338 334 327 322 321 322 320 322 329 187 242 284 304 311 271 322 283 264 291 283 261 280 327 317 316 330 310 315 316 316 325 313 283 310 321 354 330 331 345 342 331 341 333 84 53 88 114 137 134 193 21 273 50 5 23 340 323 318 348 151 155 224 189 144 138 151 121 106 112 78 22 5 360 75 178 196 198 190 79 11 7 25 297 245 189
337 339 339 330 325 320 324 320 322 329 332 199 223 265 253 236 245 306 306 283 257 267 258 310 302 283 282 294 280 287 286 297 303 305 318 329 8 334 310 273 337 350 351 11 24 35 74 97 133 292 36 139 246 32 327 16 15 293 291 339 154 64 311 110 45 137 145 128 120 109 85 48 326 2 30 81 172 187 151 66 285 337 12 30 317 251 195
338 337 333 329 321 320 326 326 324 338 334 177 201 270 298 262 247 302 317 300 280 273 283 279 265 267 280 288 292 298 311 300 297 300 314 307 341 342 322 128 30 360 1 1 54 24 32 68 27 299 338 54 47 289 122 116 37 12 346 340 326 3 314 90 71 19 27 123 133 127 112 43 359 314 149 8 303 80 355 11 70 6 30 33 90 239 148
334 332 330 323 317 319 325 328 326 330 324 272 258 295 304 223 226 265 263 293 293 294 299 182 250 263 277 275 268 273 274 273 291 306 312 302 315 330 10 349 329 340 2 355 8 27 18 33 16 358 340 320 68 221 46 52 107 67 354 329 17 1 311 88 75 357 131 133 107 93 73 21 3 24 92 56 51 24 12 333 51 29 24 23 51 101 158
328 331 327 318 311 316 323 328 329 336 333 333 303 303 292 334 193 269 280 286 271 255 269 295 299 287 277 267 264 257 255 255 257 267 285 296 314 290 278 295 293 304 352 340 348 9 23 358 276 317 30 48 171 31 69 306 75 29 66 349 59 17 35 14 42 12 12 71 94 87 62 56 41 59 70 57 31 28 22 29 29 17 24 359 357 59 106
324 327 325 310 309 317 320 323 324 329 325 330 321 306 303 305 309 321 295 286 275 273 280 280 276 272 267 260 249 245 241 241 253 253 243 247 286 237 236 266 314 334 321 29 4 319 318 327 24 341 301 40 4 0 137 36 81 29 51 9 23 359 349 330 1 63 69 83 84 91 73 62 72 70 56 41 28 20 14 22 36 27 13 357 357 350 38
321 323 317 304 313 315 320 318 315 319 326 327 317 309 308 312 313 316 298 286 293 308 294 206 282 300 324 338 331 229 222 232 230 232 224 197 229 271 224 232 247 286 4 33 11 323 323 307 312 304 342 35 293 314 35 76 56 310 115 129 96 19 347 224 111 350 252 96 53 68 61 61 56 58 58 45 24 20 12 53 42 27 3 6 8 358 3
319 318 311 307 310 315 321 315 316 322 328 324 314 300 291 292 288 302 300 311 318 333 301 300 282 258 293 306 285 270 231 222 213 214 206 208 222 254 331 55 359 340 317 321 317 297 254 294 282 245 359 62 304 53 3 308 110 310 119 49 120 118 322 57 77 63 33 98 71 66 73 77 62 47 40 23 20 45 67 62 64 44 38 38 35 40 81
317 315 312 310 310 318 314 311 317 325 329 327 320 307 307 299 305 291 277 271 266 270 293 310 293 308 302 310 314 317 309 208 204 198 205 208 214 230 264 295 291 298 306 305 297 290 310 280 301 304 330 65 318 350 52 33 75 62 38 71 14 309 298 74 49 108 132 125 111 65 111 90 70 57 49 29 5 2 54 76 70 54 45 57 63 53 73
315 314 307 306 313 313 306 310 318 328 321 324 314 306 296 295 288 268 260 261 305 266 218 274 302 304 337 316 305 282 227 222 212 209 211 213 218 225 241 260 278 301 307 308 292 296 294 287 283 16 4 34 340 39 349 119 53 74 73 49 346 242 83 108 166 127 135 95 54 339 158 87 49 38 32 29 19 31 52 47 45 41 50 64 77 79 80
309 307 309 311 321 318 309 316 323 320 324 326 309 303 297 289 295 281 245 226 222 300 309 300 304 306 310 277 263 271 272 235 225 219 220 217 216 221 235 241 254 277 299 319 319 301 325 326 16 354 271 12 291 110 14 128 233 73 51 38 10 39 30 355 51 30 123 98 59 52 58 77 51 32 27 34 32 52 62 57 53 52 53 61 75 88 88
308 305 306 310 315 318 313 314 321 326 338 326 314 308 288 245 322 294 230 206 238 275 281 285 285 275 310 350 316 293 244 240 246 230 227 221 209 217 229 231 239 252 272 278 270 287 301 345 354 323 353 8 305 128 207 119 79 67 40 18 28 41 13 359 27 35 76 39 66 45 39 61 54 43 33 34 24 33 54 50 48 49 44 49 58 61 78
303 301 301 301 312 317 313 312 322 332 336 321 316 291 244 153 59 62 134 162 200 259 302 327 320 292 331 308 293 303 313 302 254 229 225 214 203 212 219 221 228 234 253 276 324 321 22 313 317 266 275 297 292 336 341 101 104 91 39 26 37 27 48 38 22 345 17 350 356 10 54 66 71 61 53 44 34 34 43 39 29 32 41 40 49 56 59
300 293 295 299 309 310 306 311 317 325 320 301 305 282 273 260 110 132 147 181 200 280 287 254 272 296 294 244 267 305 320 330 313 220 209 207 210 210 211 215 226 215 226 216 226 333 335 256 278 312 334 298 292 321 59 121 110 89 35 25 14 15 20 30 25 16 349 340 342 337 314 80 108 104 65 44 40 36 52 55 53 41 21 47 54 52 52
300 297 295 296 298 300 301 302 306 307 292 279 257 286 0 0 5 99 167 248 267 272 306 315 309 300 315 296 304 311 305 316 278 185 167 180 189 187 197 211 225 200 251 280 343 234 231 193 225 237 272 181 245 32 327 72 78 63 31 24 346 357 10 12 15 15 2 353 313 313 45 73 39 47 66 38 45 47 52 59 47 55 54 58 63 62 61
298 294 294 294 298 300 302 299 295 288 278 296 310 301 287 280 276 271 244 244 261 264 286 295 294 302 286 323 319 311 336 288 200 223 168 183 189 175 204 199 223 248 154 226 210 243 140 209 242 256 94 174 229 80 36 63 68 89 87 100 333 340 37 9 5 10 10 2 343 298 97 62 55 51 52 61 60 54 53 55 57 61 65 61 58 57 53
300 299 299 301 300 300 297 296 290 281 264 260 252 231 198 185 250 221 220 198 256 280 292 283 301 312 297 304 283 87 6 343 339 353 197 151 171 217 186 184 194 232 174 225 51 271 177 241 247 110 184 129 337 93 75 70 64 65 66 83 51 314 76 39 32 33 38 6 360 92 84 41 323 338 81 72 71 68 64 64 72 78 67 62 60 53 47
301 298 300 302 303 304 296 284 245 206 247 250 253 215 93 22 302 285 214 182 205 221 227 231 225 309 322 321 303 59 360 319 348 12 325 112 178 263 192 245 161 243 121 227 225 241 241 78 343 246 79 136 104 80 88 73 61 51 35 33 23 21 172 163 65 59 117 194 170 104 99 131 185 76 67 65 62 59 62 60 53 60 64 57 52 51 44
297 301 304 308 301 289 234 184 218 192 207 214 161 77 6 317 314 281 190 198 258 321 290 306 290 296 316 317 332 1 345 303 338 308 276 304 199 201 263 281 234 100 88 206 310 208 269 61 248 93 168 115 66 53 79 68 72 57 44 38 31 30 48 49 55 65 100 120 109 105 108 89 73 65 73 66 58 56 56 55 49 51 57 52 48 44 39
301 308 303 281 245 198 227 126 70 242 18 360 340 313 298 290 141 101 135 195 225 229 275 302 285 268 276 303 303 293 324 320 348 324 129 311 340 110 238 240 288 76 221 207 197 136 93 256 274 80 57 74 100 82 84 67 47 55 59 45 43 40 51 58 32 331 121 110 109 112 113 116 113 87 74 64 54 50 51 46 35 32 34 32 31 31 29
307 295 274 232 223 226 187 175 171 31 333 298 281 258 157 185 197 163 159 221 204 207 224 230 255 279 294 279 282 1 320 312 342 326 309 44 290 166 228 277 34 282 253 135 78 5 295 231 321 76 88 74 94 110 108 96 80 71 68 60 56 52 51 41 9 31 120 105 87 83 98 89 79 66 59 53 45 46 45 41 40 35 29 25 24 17 26
281 259 230 221 263 296 5 76 45 323 285 245 236 249 206 184 227 220 216 187 170 226 205 231 265 269 271 278 287 281 320 315 307 297 319 42 332 333 12 292 107 267 243 194 135 260 217 140 135 133 110 133 135 116 114 103 97 80 77 67 56 50 49 51 43 49 58 64 64 52 44 54 60 56 45 45 49 45 37 32 29 27 24 21 13 10 20
308 280 321 282 250 48 8 107 185 253 226 234 197 264 267 167 245 280 124 238 222 216 207 244 247 273 279 297 316 315 147 284 323 331 334 311 95 314 8 277 41 281 288 10 78 251 290 111 134 162 110 133 120 131 126 123 111 102 89 76 67 59 59 62 65 63 67 70 63 63 62 59 54 49 42 31 20 20 23 22 15 13 3 21 2 348 12
359 309 256 316 12 338 331 322 287 232 237 227 200 202 262 244 206 272 259 253 264 125 199 290 285 275 214 237 280 294 86 234 277 294 289 285 54 262 275 301 39 286 276 78 94 249 258 128 92 41 78 114 131 135 129 121 115 112 98 86 72 65 67 64 59 59 73 71 65 59 52 49 51 50 48 41 32 21 6 0 355 6 353 356 357 352 344
360 325 329 304 298 290 286 214 219 200 208 263 269 244 215 280 249 230 234 270 52 4 192 207 272 325 341 326 303 306 283 46 303 277 290 282 78 303 316 301 200 275 343 62 342 244 252 186 112 90 88 109 121 135 137 126 124 123 114 100 86 72 69 68 68 67 61 59 59 56 55 49 49 51 41 27 22 15 1 350 343 337 336 338 327 326 342
237 255 295 285 267 227 255 209 159 246 208 185 208 258 197 234 218 250 191 211 199 262 65 207 276 283 246 227 268 206 280 34 292 243 252 302 6 235 288 291 261 240 66 310 254 239 227 90 79 83 109 132 143 144 131 121 122 117 111 106 99 78 63 69 70 69 63 63 61 58 55 57 56 49 36 34 27 21 14 358 345 331 330 328 321 320 325
315 241 215 214 248 171 210 162 154 219 238 220 212 224 198 233 198 184 228 132 3 295 348 331 332 336 333 52 326 334 246 195 206 267 254 241 275 272 258 257 358 41 308 224 250 91 82 63 47 64 77 120 140 150 138 136 137 133 132 131 125 99 79 85 87 82 73 69 67 61 56 53 54 55 45 41 27 17 10 17 3 338 324 313 311 321 345
257 215 215 227 231 147 218 332 206 205 237 193 226 267 244 261 330 294 353 28 303 318 317 287 304 310 304 340 285 196 280 334 67 269 289 318 281 253 265 340 10 278 271 257 155 126 115 106 90 76 57 122 162 158 147 148 149 149 136 145 149 130 102 77 74 83 64 53 51 49 48 42 39 40 42 36 33 29 23 16 5 351 346 333 323 331 0
245 302 274 230 285 266 237 228 160 231 222 237 247 277 282 306 310 299 11 336 305 306 311 321 311 306 302 337 299 350 25 296 278 268 313 304 280 279 36 336 263 275 264 239 156 121 97 80 50 46 33 24 170 166 159 157 147 141 156 157 148 166 161 106 91 72 77 88 61 43 44 36 30 20 26 36 31 30 21 17 13 1 346 340 349 337 341
238 203 268 297 272 185 223 242 218 243 313 253 268 276 284 315 327 313 321 319 298 318 310 303 295 308 309 312 269 196 185 232 270 309 281 261 267 340 136 279 259 275 272 185 112 97 89 49 23 22 13 12 115 181 177 167 168 174 149 122 167 178 185 196 139 143 120 134 93 42 36 35 34 32 11 27 40 28 27 14 13 10 3 351 340 336 338
253 17 275 236 224 200 211 214 330 277 232 253 276 312 321 302 286 282 332 328 320 306 306 315 303 269 242 162 225 285 312 293 280 274 312 316 308 273 268 225 218 81 2 25 86 50 47 28 6 356 351 345 297 207 189 181 185 194 180 154 160 185 198 183 184 82 171 209 185 103 67 49 38 36 35 25 26 37 25 11 7 11 8 353 345 340 351
319 268 257 280 311 269 268 13 302 265 241 218 238 267 267 278 288 314 349 326 306 309 321 300 318 302 293 291 267 255 230 148 272 339 310 261 280 312 305 245 188 133 68 1 36 29 16 2 358 341 339 335 281 221 197 180 199 201 209 195 195 199 173 186 302 31 143 213 238 220 118 83 55 40 40 27 24 34 25 15 3 13 12 4 353 344 338
234 204 215 235 234 222 231 266 263 263 241 233 237 237 289 288 291 62 24 312 312 302 290 240 234 268 306 296 269 255 253 137 269 204 260 297 359 329 285 218 55 17 35 16 7 1 359 352 346 342 353 357 180 206 205 188 191 243 238 234 199 188 200 189 191 319 32 128 174 239 175 150 92 15 13 16 25 27 19 19 8 8 8 10 0 346 354
215 275 279 311 272 327 45 262 261 270 256 241 249 308 345 322 333 342 22 324 306 296 293 322 338 309 316 291 276 252 76 9 267 230 286 53 343 321 5 10 27 0 356 356 349 349 348 347 341 345 356 36 101 115 134 152 175 171 169 188 166 193 179 187 184 172 210 180 136 157 151 125 124 340 25 359 351 345 58 99 31 360 359 3 15 4 3
220 225 220 179 225 259 271 294 286 267 282 300 296 340 328 306 11 320 331 307 297 305 353 340 314 311 282 296 350 326 300 248 253 242 202 77 348 350 17 336 333 341 344 337 348 356 350 352 353 335 325 353 8 70 94 104 121 128 130 125 147 167 182 171 177 195 286 189 132 113 113 144 182 237 40 327 339 350 360 12 43 6 353 357 14 7 358